Location: Étang Rond
(42.7927°N, 1.0661°E)
Time: 00:38:22
(UTC+00:00)

SKYMED 2 - Pass Details

Date: 08 November 2025
Orbit: 621 x 623 km, 97.9° (Epoch: 07 December)

Event Time Altitude Azimuth Distance (km) Brightness Sun altitude
Rises 04:51:13 0° 157° (SSE) 2,892 7.4 -20.0°
Reaches altitude 10° 04:53:24 10° 154° (SSE) 1,990 6.5 -19.6°
Maximum altitude 04:57:41 63° 74° (ENE) 699 4.0 -18.8°
Drops below altitude 10° 05:01:59 10° 354° (N) 2,004 6.0 -18.0°
Sets 05:04:12 0° 351° (N) 2,915 6.9 -17.6°
